ARIANE 40+ R/B

Satellite information

Favourite Embed

Satellite Type and Status

ROCKET BODYIN ORBIT

Key statistics

Satellite ARIANE 40+ R/B at a glance.

Uptime

11195

Days in orbit

Revolutions

≈ 14.4

Per day

Orbit

SSO

Sun Synchronous Orbit

Inclination

98.5

Latest

Satellite identification and parameters

Extended collection of information and parameters for ARIANE 40+ R/B.

Object identification

Identified? True

Debris? False

Object name: ARIANE 40+ R/B

International designator: 1995-021B

Object number (NORAD): 23561

Object ID (CCSDS): 23561

Country: FRANCE (FR)

Current information (Y/N): Y

RCS size: LARGE

Orbital parameters

Period: 100.021 minutes

Inclination: 98.4652 deg

SMA: 7137.644 km

Apoapsis: 764.871 km

Periapsis: 754.146 km

RAAN: 53.7748 deg

Eccentricy: 0.00075127

Argument of periapsis: 51.5417 deg

Mean anomaly: 2.5008 deg

Mean motion: 14.39694936 rev/day

Mean motion (dot): 0.00000515 rev/day2

B* drag term: 0.00017835194 1/REarth

Two-line elements (TLE)

Creation date: Dec. 12, 2025, 10:14 a.m.

Reference frame: TEME

Reference center: EARTH

Epoch: Dec. 12, 2025, 4:18 a.m. UTC

TLE line 0: 0 ARIANE 40+ R/B

TLE line 1: 1 23561U 95021B 25346.17921917 .00000515 00000-0 17835-3 0 9999

TLE line 2: 2 23561 98.4652 53.7748 0007513 51.5417 2.5008 14.39694936606658

Live tracking on map

Real-time ground track for satellite ARIANE 40+ R/B.

In-orbit conjunctions

A list of the most updated potential collisions computed for object ARIANE 40+ R/B.

Target Orbit TCA Probability of collision Miss distance Type
SCOUT G-1 R/B LEO 2025-05-23 20:35:44 0.0001606323 415.0 (m) ROCKET BODY
FENGYUN 1C DEB SSO 2024-11-29 03:55:01 0.0001020172 764.0 (m) DEBRIS

Associated space launch

ERS (European Remote Sensing Satellite) are a family of multi-disciplinary Earth Observation Satellites.

ARIANE 40+ R/B was lifted into orbit during the mission ‘Ariane 40 | ERS-2’, on board a Ariane 40 space rocket.

The launch took place on April 21, 1995, 1:44 a.m. from Ariane Launch Area 2.

For more information about the launch, click the button.

Launch to space Ariane 40 | ERS-2
Ariane 40 | ERS-2

Agency: N/A

Status: Launch Successful

Launch date: April 21, 1995, 1:44 a.m. UTC

Rocket: Ariane 40

Launch pad: Ariane Launch Area 2

Location: Guiana Space Centre, French Guiana

...

Latest news about this satellite

News about space launch
Impending European satellite reentry highlights debris mitigation challenges

The impending reentry of a defunct European satellite serves as a reminder of the hazards posed by existing objects even as agencies work to mitigate the growth of orbital debris.

News about space launch
A big European satellite will make an uncontrolled return to Earth Wednesday

What goes up must come down.


Newsletter sign-up

Weekly statistics, charts and insights to help you stay on top of the space industry.